FENGYUN 1C DEB

Satellite information

Favourite Embed

Satellite Type and Status

DEBRISIN ORBIT

Key statistics

Satellite FENGYUN 1C DEB at a glance.

Uptime

9662

Days in orbit

Revolutions

≈ 14.9

Per day

Orbit

SSO

Sun Synchronous Orbit

Inclination

99.0

Latest

Satellite identification and parameters

Extended collection of information and parameters for FENGYUN 1C DEB.

Object identification

Identified? True

Debris? True

Object name: FENGYUN 1C DEB

International designator: 1999-025JS

Object number (NORAD): 29944

Object ID (CCSDS): 29944

Country: PEOPLES REPUBLIC OF CHINA (PRC)

Current information (Y/N): Y

RCS size: SMALL

Orbital parameters

Period: 96.936 minutes

Inclination: 98.9967 deg

SMA: 6990.088 km

Apoapsis: 733.817 km

Periapsis: 490.088 km

RAAN: 221.9964 deg

Eccentricy: 0.0174339

Argument of periapsis: 37.9875 deg

Mean anomaly: 323.3484 deg

Mean motion: 14.85521095 rev/day

Mean motion (dot): 0.00022514 rev/day2

B* drag term: 0.0019807 1/REarth

Two-line elements (TLE)

Creation date: Oct. 22, 2025, 12:16 a.m.

Reference frame: TEME

Reference center: EARTH

Epoch: Oct. 21, 2025, 6:50 p.m. UTC

TLE line 0: 0 FENGYUN 1C DEB

TLE line 1: 1 29944U 99025JS 25294.78486891 .00022514 00000-0 19807-2 0 9997

TLE line 2: 2 29944 98.9967 221.9964 0174339 37.9875 323.3484 14.85521095996828

Live tracking on map

Real-time ground track for satellite FENGYUN 1C DEB.

In-orbit conjunctions

A list of the most updated potential collisions computed for object FENGYUN 1C DEB.

Target Orbit TCA Probability of collision Miss distance Type
SL-8 R/B LEO 2024-12-23 18:54:01 0.0001459818 740.0 (m) ROCKET BODY
OBJECT M SSO 2024-11-14 18:42:21 0.001457944 214.0 (m) UNKNOWN
FENGYUN 1C DEB SSO 2024-10-13 16:30:08 0.0001038924 285.0 (m) DEBRIS

Associated space launch

Chinese polar orbiting meteorological satellite

FENGYUN 1C DEB was lifted into orbit during the mission ‘Long March 4B | Feng Yun 1C’, on board a Long March 4B space rocket.

The launch took place on May 10, 1999, 1:33 a.m. from Launch Complex 7.

For more information about the launch, click the button.

Launch to space Long March 4B | Feng Yun 1C
Long March 4B | Feng Yun 1C

Agency: N/A

Status: Launch Successful

Launch date: May 10, 1999, 1:33 a.m. UTC

Rocket: Long March 4B

Launch pad: Launch Complex 7

Location: Taiyuan Satellite Launch Center, People's Republic of China

...

Latest news about this satellite

There are no fresh news available about this satellite. Check back as we update our databases every day.


Newsletter sign-up

Weekly statistics, charts and insights to help you stay on top of the space industry.